Tracking 30703 objects as of 13-Jun-2025
HD Live streaming from Space Station
objects crossing your sky now

EKRAN 7

Track EKRAN 7 now!
EKRAN 7 is classified as:


NORAD ID: 12564
Int'l Code: 1981-061A
Perigee: 35,763.4 km
Apogee: 35,797.4 km
Inclination: 7.4 °
Period: 1,435.4 minutes
Semi major axis: 42151 km
RCS: 3.9811 m2 (large)
Launch date: June 26, 1981
Source: Commonwealth of Independent States (former USSR) (CIS)
Launch site: TYURATAM MISSILE AND SPACE COMPLEX (TTMTR)
Your satellite tracking list
Your tracking list is empty




NASA's NSSDC Master Catalog

Two Line Element Set (TLE):
1 12564U 81061A   25162.68609227  .00000049  00000-0  00000-0 0  9993
2 12564   7.4033 296.3113 0004032  62.9929 208.9768  1.00319520125793
Source of the keplerian elements: AFSPC